Location: Auckland
(36.8670°S, 174.7670°E)
Time: 04:21:14
(UTC+12:00)

NOSS 2-1 (E) - Pass Details

Date: 01 May 2019
Orbit: 471 x 1733 km, 63.3° (Epoch: 21 May)

Event Time Altitude Azimuth Distance (km) Brightness Sun altitude
Rises 18:44:13 0° 228° (SW) 4,930 8.8 -14.1°
Reaches altitude 10° 18:52:06 10° 191° (S) 3,662 7.5 -15.6°
Maximum altitude 18:53:23 10° 183° (S) 3,575 7.4 -15.9°
Drops below altitude 10° 18:54:40 10° 174° (S) 3,536 7.3 -16.1°
Enters shadow 18:58:59 - 147° (SSE) 3,772 7.2 -17.0°
